Date,TemperatureHighF,TemperatureAvgF,TemperatureLowF,DewpointHighF,DewpointAvgF,DewpointLowF,HumidityHigh,HumidityAvg,HumidityLow,PressureMaxIn,PressureMinIn,WindSpeedMaxMPH,WindSpeedAvgMPH,GustSpeedMaxMPH,PrecipitationSumIn
2012-1-1,47.2,39.7,32.5,40.2,28.3,16.2,100,65,36,30.39,29.71,57,25,63,0.00
2012-1-2,32.5,25.3,19.0,18.9,12.1,8.2,69,57,49,30.53,30.24,52,23,58,0.46
2012-1-3,36.4,24.7,13.0,16.1,11.9,6.0,80,59,41,30.56,30.12,14,4,16,0.46
2012-1-4,47.0,37.0,29.2,30.0,23.4,14.6,75,58,48,30.21,29.97,28,8,32,0.00
2012-1-5,60.2,41.9,29.2,36.1,29.9,23.4,83,64,39,30.18,29.82,18,3,25,0.00
2012-1-6,63.1,47.1,36.8,38.3,33.3,29.5,78,60,39,29.97,29.71,23,6,26,0.46
2012-1-7,47.4,38.4,30.8,30.6,28.3,25.5,83,67,50,30.33,29.94,22,7,25,0.46
2012-1-8,45.1,34.3,24.5,34.9,27.8,21.8,93,78,58,30.36,30.24,11,1,12,0.00
2012-1-9,51.0,36.2,23.5,35.5,27.0,22.2,100,72,42,30.33,30.12,18,4,20,0.00
2012-1-10,59.8,41.0,29.8,35.6,28.8,0.0,83,64,16,30.15,29.79,10,2,11,0.00
2012-1-11,54.6,41.0,31.9,41.5,31.9,26.1,87,71,51,29.79,29.53,31,6,34,0.00
2012-1-12,35.7,19.6,14.6,30.9,15.6,9.8,95,84,71,29.88,29.62,44,24,49,0.46
2012-1-13,22.9,17.1,9.1,12.2,9.5,1.9,84,72,60,30.21,29.88,35,14,39,6.56
2012-1-14,30.5,19.1,8.2,21.1,12.9,0.8,90,77,65,30.36,30.09,14,3,15,6.56
2012-1-15,41.8,31.6,21.3,30.2,25.6,19.6,96,79,60,30.41,30.00,17,5,26,6.56
2012-1-16,62.7,47.9,32.1,57.1,43.2,28.0,100,84,70,30.03,29.71,15,4,17,0.46
2012-1-17,56.8,32.8,16.6,56.6,29.8,10.1,100,89,73,30.41,29.68,44,19,49,6.56
2012-1-18,32.8,22.2,10.9,20.4,13.7,5.4,84,70,51,30.47,29.94,16,4,17,6.56
2012-1-19,30.7,21.0,10.1,23.0,10.0,-2.8,78,62,50,30.24,29.94,26,6,28,6.56
2012-1-20,25.1,17.2,9.1,17.2,5.8,-3.8,88,61,53,30.30,29.88,16,5,19,0.00
2012-1-21,33.4,24.0,18.1,24.7,18.4,14.9,97,80,55,30.24,30.09,24,6,26,0.00
2012-1-22,47.6,35.5,25.3,47.6,35.5,24.5,100,100,97,30.12,29.44,20,4,22,0.04
2012-1-23,48.7,38.5,33.5,48.5,34.4,26.1,100,85,69,30.09,29.41,33,12,35,0.71
2012-1-24,39.1,33.0,27.6,26.7,24.8,22.2,90,72,58,30.39,30.06,22,6,24,0.00
2012-1-25,36.1,32.3,27.2,34.1,30.6,25.4,100,93,81,30.39,30.06,15,2,16,0.00
2012-1-26,37.7,35.4,33.7,37.7,35.4,33.7,100,100,100,30.09,29.71,15,5,16,6.56
2012-1-27,41.6,35.6,29.8,35.7,32.7,28.8,100,90,62,30.12,29.79,17,5,19,0.00
2012-1-28,35.7,31.1,26.7,34.3,27.4,22.5,100,87,59,30.27,30.06,32,13,34,0.75
2012-1-29,38.6,33.4,28.1,25.1,22.3,18.0,77,64,46,30.27,30.15,31,8,34,0.00
2012-1-30,62.2,45.1,31.0,42.6,33.8,23.1,82,66,44,30.24,29.88,13,5,14,0.00
2012-1-31,66.1,53.3,44.7,52.9,44.8,36.4,99,73,54,30.03,29.82,16,4,18,0.00
2012-2-1,56.9,43.4,33.2,45.9,38.5,32.7,100,84,54,30.24,30.03,16,3,18,0.00
2012-2-2,60.4,42.4,28.1,49.4,36.5,28.1,100,83,44,30.39,30.24,10,2,12,0.75
2012-2-3,58.7,45.7,35.2,45.2,39.5,35.2,100,82,48,30.44,30.24,27,5,29,0.75
2012-2-4,42.9,40.9,38.9,42.9,40.9,38.9,100,100,100,30.24,30.06,26,6,28,0.25
2012-2-5,49.6,39.0,31.4,38.9,35.4,30.5,100,88,50,30.33,30.21,15,4,16,0.37
2012-2-6,40.9,32.8,28.0,36.2,32.2,28.0,100,98,78,30.36,30.12,13,5,14,0.00
2012-2-7,36.1,31.5,25.8,35.2,31.2,25.8,100,99,92,30.44,30.21,18,3,19,0.00
2012-2-8,35.9,31.8,28.9,31.4,25.1,20.0,100,77,58,30.47,30.36,18,9,21,1.12
2012-2-9,38.0,28.7,20.8,28.9,21.6,18.0,93,75,51,30.42,30.18,22,3,24,0.00
2012-2-10,39.8,32.5,21.1,36.8,28.0,0.0,95,83,64,30.33,29.94,34,8,36,0.00
2012-2-11,27.4,20.1,13.0,12.7,3.5,-12.9,70,49,18,30.56,30.33,40,16,43,1.12
2012-2-12,37.9,24.4,15.7,9.7,2.1,-11.4,63,43,16,30.56,30.30,26,10,28,0.00
2012-2-13,36.1,30.1,21.8,31.0,22.0,8.2,99,73,49,30.33,29.82,12,3,15,1.12
2012-2-14,39.5,35.4,31.2,36.9,33.4,30.4,100,92,83,30.09,29.88,13,2,14,0.08
2012-2-15,44.9,39.2,31.2,43.3,38.8,31.2,100,99,90,30.12,29.97,13,2,14,0.00
2012-2-16,49.6,41.2,33.2,43.6,36.2,25.2,100,85,46,30.27,30.00,26,8,28,0.00
2012-2-17,58.6,41.7,29.4,36.3,30.7,25.1,92,67,38,30.30,30.06,13,2,14,0.00
2012-2-18,47.2,35.9,27.6,30.3,25.1,20.8,87,66,43,30.27,30.12,22,5,24,0.00
2012-2-19,44.9,31.8,21.8,27.7,20.9,17.1,90,66,43,30.30,30.15,16,3,17,0.00
2012-2-20,48.7,36.6,23.5,31.5,25.6,17.5,86,66,43,30.33,29.82,21,4,22,1.20
2012-2-21,55.0,43.7,34.6,44.1,35.0,25.9,99,74,37,29.88,29.71,31,6,34,0.05
2012-2-22,59.6,45.0,34.3,34.3,30.4,26.9,77,58,37,29.82,29.41,22,4,24,0.05
2012-2-23,59.1,42.2,35.5,47.1,36.7,27.1,93,82,56,29.56,29.29,17,4,19,0.04
2012-2-24,42.7,35.5,26.9,34.6,26.9,16.6,95,72,47,30.15,0.00,42,21,45,1.20
2012-2-25,39.3,29.0,22.9,27.7,18.2,12.6,94,65,45,30.39,30.12,33,10,37,1.20
2012-2-26,65.6,40.9,24.5,33.0,25.4,16.8,81,57,26,30.33,29.97,21,5,22,0.00
2012-2-27,48.1,38.3,28.9,31.3,22.0,17.1,69,53,34,30.47,30.09,28,8,30,0.00
2012-2-28,59.6,41.4,29.6,48.5,29.8,18.9,99,66,33,30.50,29.74,19,5,21,0.46
2012-2-29,64.1,54.2,37.7,60.7,39.3,22.8,100,61,23,29.85,29.53,45,13,48,0.00
2012-3-1,57.8,42.3,31.2,36.2,30.6,25.3,82,65,41,29.97,29.65,24,6,26,1.20
2012-3-2,55.9,41.4,34.3,49.7,37.1,31.0,100,85,67,29.88,29.32,44,10,47,0.08
2012-3-3,38.9,34.6,28.1,31.0,25.1,21.7,84,69,55,30.00,29.82,30,13,32,0.00
2012-3-4,40.2,30.6,23.8,30.3,23.9,19.0,100,78,46,30.15,29.82,18,5,19,0.04
2012-3-5,46.5,31.4,17.0,29.5,24.0,16.1,100,77,47,30.42,29.85,25,4,27,0.17
2012-3-6,75.2,51.9,36.1,41.7,31.7,6.5,71,50,12,30.21,29.88,22,5,24,0.67
2012-3-7,70.3,62.0,53.1,55.0,46.1,35.4,80,56,48,30.00,29.32,22,6,24,0.00
2012-3-8,62.8,41.4,34.5,54.4,32.3,23.2,100,72,43,30.47,29.88,36,12,38,0.17
2012-3-9,50.7,38.8,30.6,25.9,17.0,-11.0,74,44,14,30.56,30.41,26,7,26,0.00
2012-3-10,67.8,43.1,26.8,28.1,20.8,14.4,66,44,17,30.56,30.30,20,4,20,0.00
2012-3-11,71.2,51.9,35.6,51.4,33.4,23.3,88,51,29,30.36,29.97,17,4,22,0.00
2012-3-12,80.6,63.3,49.1,59.8,51.0,15.5,98,71,18,30.00,29.74,28,7,28,0.04
2012-3-13,83.8,60.8,41.2,58.6,45.6,39.4,98,65,24,30.12,29.97,13,2,13,0.04
2012-3-14,87.3,68.1,56.8,61.3,55.7,46.4,95,69,31,30.09,29.88,18,4,18,0.00
2012-3-15,85.4,66.8,58.0,61.1,57.1,50.3,98,76,32,30.09,29.94,22,4,22,0.00
2012-3-16,83.7,66.1,55.7,59.8,53.8,46.3,93,69,28,30.15,30.00,16,4,16,0.00
2012-3-17,81.9,64.6,56.2,66.2,56.1,47.4,98,77,44,30.12,29.97,17,4,17,0.00
2012-3-18,86.3,69.3,57.8,62.0,57.4,51.0,92,69,35,30.12,29.94,16,6,16,0.00
2012-3-19,85.0,71.2,63.6,65.5,57.2,46.6,94,65,34,30.03,29.82,19,5,19,0.00
2012-3-20,86.4,72.3,61.2,56.6,47.0,-17.9,77,45,2,30.00,29.88,17,6,20,0.00
2012-3-21,85.7,72.3,60.5,57.8,51.1,45.0,77,50,29,30.09,29.94,18,5,18,0.00
2012-3-22,69.5,65.0,58.9,63.3,57.7,49.6,98,79,51,30.12,29.97,17,4,17,0.17
2012-3-23,73.7,57.7,48.8,60.1,50.3,43.5,98,80,35,30.03,29.79,12,2,12,0.00
2012-3-24,75.1,56.2,46.3,54.2,48.2,44.1,98,78,37,30.00,29.82,9,4,9,0.00
2012-3-25,78.3,64.2,54.6,59.1,51.1,44.7,98,66,32,30.12,30.00,12,7,12,0.00
2012-3-26,60.2,52.8,47.6,49.6,35.3,25.1,83,54,28,30.30,30.09,17,6,17,0.17
2012-3-27,76.5,60.5,44.7,51.7,40.1,31.6,65,49,31,30.21,29.88,17,5,17,0.00
2012-3-28,77.8,66.0,54.9,53.1,33.6,-19.9,76,37,3,30.06,29.88,23,3,23,0.00
2012-3-29,57.5,51.3,45.9,48.8,38.5,29.0,84,63,38,30.12,29.91,12,4,12,0.08
2012-3-30,75.5,60.9,49.0,57.8,48.3,41.4,89,66,37,29.91,29.71,23,9,23,0.00
2012-3-31,74.4,56.3,43.2,47.6,41.1,0.0,84,60,32,30.03,29.76,10,4,13,0.00
2012-4-1,89.7,70.3,54.0,58.9,51.7,45.5,87,56,27,29.79,29.59,21,4,21,0.00
2012-4-2,89.5,70.3,55.7,60.1,55.4,50.5,89,63,33,29.82,29.65,16,5,16,0.00
2012-4-3,91.3,70.4,56.0,64.9,54.1,41.4,98,61,21,29.88,29.76,20,4,20,0.00
2012-4-4,68.6,56.2,49.2,51.2,34.5,-13.2,76,53,4,29.94,29.76,24,6,24,0.00
2012-4-5,64.3,52.3,40.2,32.5,14.4,-13.2,53,30,4,30.15,29.85,20,5,20,0.00
2012-4-6,66.5,45.4,31.7,30.7,12.6,-13.2,76,41,4,30.27,30.15,13,3,15,0.00
2012-4-7,67.0,53.9,35.7,46.3,29.4,-12.0,76,46,4,30.30,30.18,24,4,24,0.00
2012-4-8,69.7,55.1,41.1,45.9,12.2,-15.2,92,37,3,30.39,30.12,23,5,23,0.00
2012-4-9,69.0,57.6,45.4,30.7,10.7,-13.2,53,22,4,30.15,30.00,35,10,38,0.00
2012-4-10,58.2,47.6,37.1,3.8,-0.9,-6.2,15,13,11,30.21,30.03,32,10,36,0.00
2012-4-11,59.6,42.2,30.3,29.3,7.5,-8.4,62,30,11,30.36,30.21,16,2,18,0.00
2012-4-12,67.7,50.7,33.2,31.5,10.7,-0.7,66,27,9,30.33,30.09,9,2,16,0.00
2012-4-13,53.7,50.2,46.5,46.8,36.3,-1.0,89,62,12,30.21,30.03,12,3,13,0.17
2012-4-14,70.4,58.0,50.6,68.3,56.9,46.2,100,96,82,30.03,29.76,8,2,11,0.41
2012-4-15,75.3,67.9,57.3,65.7,61.5,0.0,100,81,66,29.79,29.62,16,4,18,0.62
2012-4-16,62.9,55.4,47.7,57.3,44.6,39.2,100,69,43,30.30,29.65,29,10,33,0.04
2012-4-17,67.5,53.7,43.6,50.3,41.1,36.2,96,66,35,30.39,30.24,15,1,17,0.00
2012-4-18,125.3,59.6,45.0,53.8,46.0,0.0,96,64,38,30.30,30.00,15,3,17,0.00
2012-4-19,77.4,66.1,53.0,52.9,46.9,24.1,82,52,35,30.03,29.71,11,3,12,0.00
2012-4-20,64.5,50.3,44.7,52.9,42.7,35.8,100,77,41,30.09,29.68,20,6,22,0.00
2012-4-21,58.5,48.5,36.6,38.8,30.4,2.7,94,56,11,30.12,29.94,14,2,16,0.00
2012-4-22,59.6,49.6,40.5,37.0,21.5,-1.8,65,39,11,30.15,29.94,16,3,18,0.00
2012-4-23,62.7,49.6,36.2,34.7,24.2,3.1,69,42,10,30.18,29.91,24,6,27,0.00
2012-4-24,69.5,56.8,43.8,52.0,41.8,30.8,74,58,39,29.94,29.65,11,4,14,0.00
2012-4-25,80.5,63.9,47.6,63.8,54.5,44.4,93,73,47,29.68,29.53,12,3,14,0.05
2012-4-26,71.5,62.9,46.5,60.8,47.2,31.6,92,59,36,30.12,29.62,16,4,21,0.00
2012-4-27,59.6,48.9,39.5,31.8,15.3,1.0,56,32,11,30.27,30.00,13,3,15,0.00
2012-4-28,64.1,54.4,47.7,51.0,42.6,23.3,81,66,31,30.15,29.88,15,3,18,0.04
2012-4-29,55.3,50.5,46.3,55.3,48.1,40.5,100,92,79,30.21,30.00,11,2,12,0.96
2012-4-30,64.1,59.7,53.5,64.1,59.7,53.5,100,100,99,30.03,29.94,11,3,13,0.91
2012-5-1,74.0,62.1,53.5,73.8,61.0,53.5,100,97,74,30.06,29.79,12,3,14,0.58
2012-5-2,82.5,70.8,63.4,70.9,65.8,62.0,100,86,62,30.03,29.82,11,3,12,0.00
2012-5-3,83.1,74.0,64.8,73.7,69.2,64.8,100,86,64,30.00,29.79,12,2,14,0.00
2012-5-4,78.3,69.3,62.6,70.7,66.7,62.6,100,92,68,30.00,29.85,15,1,17,0.50
2012-5-5,86.4,73.1,60.4,71.1,66.4,60.4,100,81,54,29.97,29.85,6,1,7,0.00
2012-5-6,89.2,77.5,68.7,76.7,70.0,0.0,100,80,50,29.91,29.74,7,2,8,0.00
2012-5-7,72.7,67.6,59.2,69.9,64.5,58.3,100,90,78,29.91,29.76,12,3,14,0.00
2012-5-8,73.2,63.5,55.2,58.8,45.3,29.8,98,57,26,30.00,29.88,18,5,24,0.04
2012-5-9,68.9,59.8,50.9,48.0,36.9,4.8,78,50,9,30.03,29.94,15,4,17,0.00
2012-5-10,71.8,60.9,48.2,55.0,40.2,4.6,100,55,8,30.06,29.97,8,1,9,0.00
2012-5-11,75.2,64.4,51.8,50.8,47.0,43.7,79,55,37,30.18,30.06,7,2,8,0.00
2012-5-12,73.2,65.4,57.6,56.7,51.8,46.9,76,62,46,30.27,30.18,8,1,9,0.00
2012-5-13,75.7,63.5,51.3,48.4,41.4,30.5,73,48,28,30.27,30.12,11,2,12,0.00
2012-5-14,79.2,62.8,50.5,45.3,34.6,6.0,61,40,7,30.18,30.00,11,1,12,0.00
2012-5-15,83.1,69.4,54.1,51.4,44.6,31.4,74,44,20,30.06,29.88,12,2,16,0.00
2012-5-16,75.0,66.4,56.3,52.4,38.3,2.3,66,40,10,30.09,29.91,11,2,12,0.00
2012-5-17,78.4,64.1,46.9,43.2,22.7,2.1,62,28,7,30.15,30.00,9,1,11,0.00
2012-5-18,85.0,68.5,54.3,56.2,46.0,32.4,65,46,27,30.06,29.88,7,1,8,0.00
2012-5-19,88.6,76.8,64.3,65.0,57.3,50.1,77,53,34,30.03,29.91,11,2,12,0.00
2012-5-20,87.5,74.1,63.8,67.4,61.8,-29.1,100,69,38,30.09,29.94,20,2,23,1.50
2012-5-21,71.9,62.9,55.5,64.7,51.5,45.3,100,68,41,30.18,30.09,12,3,13,0.04
2012-5-22,74.9,63.7,51.4,56.2,49.2,45.2,94,63,37,30.15,29.88,7,1,9,0.00
2012-5-23,80.9,68.6,54.4,57.5,50.2,46.4,79,55,30,29.94,29.71,8,2,9,0.00
2012-5-24,88.1,76.5,63.2,64.9,57.0,48.7,71,52,36,29.76,29.53,14,4,16,0.00
2012-5-25,86.6,76.5,69.5,69.4,61.4,53.5,77,61,37,30.00,29.71,8,1,9,0.00
2012-5-26,89.8,80.7,70.6,74.7,71.9,68.2,97,76,58,30.03,29.91,7,1,8,0.00
2012-5-27,90.2,82.0,72.7,70.6,66.1,60.6,81,60,44,30.00,29.79,8,1,9,0.00
2012-5-28,90.5,82.1,36.2,69.7,66.0,-28.4,78,59,5,29.82,29.68,11,1,12,0.00
2012-5-29,86.7,76.5,66.8,65.6,54.7,24.8,76,50,14,29.88,29.74,11,2,12,0.00
2012-5-30,77.9,68.9,59.9,52.4,45.9,38.5,67,45,26,30.00,29.82,12,1,14,0.00
2012-5-31,61.2,56.4,36.2,54.0,49.4,-28.4,100,79,5,29.97,29.82,12,2,13,0.54
2012-6-1,68.9,58.4,50.7,51.0,47.4,41.4,98,70,39,29.97,29.88,15,5,23,0.37
2012-6-2,76.1,63.7,53.8,59.5,53.0,44.7,88,69,45,29.94,29.82,13,2,15,0.37
2012-6-3,81.2,70.4,58.3,63.5,56.5,50.0,96,65,35,29.97,29.82,10,1,12,0.37
2012-6-4,74.1,69.2,64.4,65.7,61.0,57.6,90,76,58,29.91,29.79,10,1,12,0.37
2012-6-5,78.6,68.5,56.9,60.7,53.9,49.6,88,62,40,30.03,29.91,7,1,8,0.37
2012-6-6,77.2,67.6,55.1,58.5,51.2,47.7,89,58,37,30.12,30.00,8,1,9,0.37
2012-6-7,81.5,70.6,59.2,60.5,50.7,10.9,81,53,7,30.18,30.03,8,1,9,0.37
2012-6-8,84.2,73.1,59.9,63.0,54.0,47.8,80,54,34,30.15,29.91,8,0,9,0.37
2012-6-9,87.5,76.4,62.8,61.8,57.9,54.0,76,55,37,30.00,29.79,8,2,9,0.37
2012-6-10,87.8,76.4,67.5,67.8,62.0,58.1,77,62,38,29.97,29.79,9,2,10,0.00
2012-6-11,80.1,74.1,70.2,74.9,70.1,63.6,100,88,71,29.91,29.74,10,1,12,5.23
2012-6-12,79.7,72.2,62.4,69.2,45.2,9.2,95,46,7,30.15,29.91,14,4,16,0.00
2012-6-13,79.0,68.5,56.7,55.3,51.4,48.4,79,56,36,30.24,30.03,5,1,6,0.00
2012-6-14,85.3,73.8,60.5,61.9,57.6,52.1,75,59,38,30.12,29.91,7,2,8,0.00
2012-6-15,89.6,77.3,63.7,68.1,61.3,55.0,77,59,38,30.09,29.94,8,2,9,0.00
2012-6-16,91.2,80.6,71.1,74.5,68.7,62.9,100,69,51,30.06,29.82,20,2,23,0.63
2012-6-17,86.4,77.5,71.1,76.5,71.4,65.4,100,83,53,30.00,29.76,8,1,9,0.00
2012-6-18,90.5,82.4,74.1,75.6,71.5,64.4,100,72,49,29.82,29.68,11,3,12,0.00
2012-6-19,91.4,83.2,75.0,75.4,69.5,64.7,82,64,49,29.97,29.82,9,3,10,0.00
2012-6-20,91.1,82.1,75.0,71.2,65.0,0.0,65,57,5,30.03,29.85,8,3,9,0.00
2012-6-21,83.3,78.0,70.2,71.1,64.8,59.6,80,65,46,30.00,29.88,11,3,12,0.00
2012-6-22,83.3,72.4,63.9,66.2,59.4,51.9,92,67,35,30.06,29.94,8,1,9,0.00
2012-6-23,84.6,71.9,63.8,65.5,60.4,54.0,84,69,37,30.06,29.94,6,1,6,0.08
2012-6-24,82.9,74.3,68.7,76.6,66.3,59.7,100,77,61,30.06,29.88,7,0,8,0.04
2012-6-25,82.9,75.9,63.7,69.3,53.9,18.2,87,50,14,30.06,29.88,8,2,9,0.00
2012-6-26,82.4,69.9,55.8,56.5,51.4,44.2,83,55,30,30.06,29.88,7,1,8,0.00
2012-6-27,89.6,76.0,59.1,59.3,55.2,51.0,78,51,33,30.00,29.76,7,2,8,0.00
2012-6-28,100.7,85.3,68.1,77.2,66.7,54.3,80,56,35,29.91,29.76,7,2,8,0.00
2012-6-29,98.7,86.8,76.6,76.5,72.3,62.7,88,65,31,29.85,29.71,15,2,17,0.00
2012-6-30,93.8,81.2,71.2,75.9,70.4,64.5,100,71,44,29.85,29.76,8,1,9,0.00
2012-7-1,90.1,78.8,73.3,79.6,75.1,71.4,100,90,57,29.97,29.79,6,0,7,0.00
2012-7-2,96.5,83.1,72.6,79.5,72.3,64.8,100,74,39,29.97,29.85,8,0,9,0.00
2012-7-3,95.5,82.6,69.5,74.8,70.8,67.3,97,71,41,29.94,29.79,6,1,7,0.00
2012-7-4,98.7,86.7,75.8,77.7,70.1,34.3,96,63,21,29.94,29.82,8,0,9,0.00
2012-7-5,149.4,87.8,74.9,72.8,58.6,22.6,83,49,7,29.97,29.88,12,2,13,0.00
2012-7-6,102.1,90.2,77.1,76.6,60.8,23.1,95,51,7,30.00,29.88,8,1,9,0.00
2012-7-7,102.1,90.6,79.4,81.6,64.1,21.8,100,55,7,30.00,29.85,8,1,9,0.00
2012-7-8,87.2,80.2,73.1,74.0,67.9,56.5,84,67,47,30.03,29.91,8,1,9,0.00
2012-7-9,90.2,78.2,65.8,65.3,53.3,16.0,81,51,7,30.06,29.94,6,1,7,0.00
2012-7-10,90.2,79.3,69.5,66.1,46.8,7.0,86,44,7,30.06,29.94,9,1,10,0.00
2012-7-11,89.7,77.3,69.4,64.4,49.7,6.7,75,45,7,30.09,29.97,9,1,10,0.00
2012-7-12,94.4,80.3,66.8,67.1,49.0,16.6,80,45,7,30.06,29.94,6,1,7,0.00
2012-7-13,92.8,81.3,70.4,74.3,66.9,-54.2,99,66,35,30.06,29.91,7,2,8,0.00
2012-7-14,91.3,78.5,71.0,75.8,70.3,65.7,100,79,45,30.09,29.94,3,1,3,0.00
2012-7-15,94.6,81.4,70.4,76.8,69.7,64.3,100,71,40,30.09,29.94,8,1,9,0.00
2012-7-16,96.2,84.3,73.3,77.2,70.4,65.2,95,66,38,30.03,29.82,6,0,7,0.00
2012-7-17,99.8,87.0,76.4,74.5,68.7,56.8,87,58,25,29.88,29.14,8,0,9,0.00
2012-7-18,101.2,86.1,76.6,77.3,69.6,28.7,89,63,8,29.91,29.76,15,1,17,0.00
2012-7-19,95.6,85.2,75.1,75.5,70.5,63.6,91,64,35,29.91,29.79,18,4,21,0.00
2012-7-20,85.9,76.7,70.8,71.0,67.1,61.5,96,74,47,30.09,29.91,11,1,12,0.00
2012-7-21,90.2,77.0,67.7,68.2,56.5,-55.0,87,56,7,30.15,29.85,6,0,7,0.00
2012-7-22,96.4,83.4,70.4,67.7,52.2,19.5,83,45,7,30.12,29.97,6,1,7,0.00
2012-7-23,103.6,88.6,75.7,74.7,64.6,25.0,72,49,7,30.03,29.88,10,3,12,0.00
2012-7-24,97.9,87.8,80.6,77.3,73.2,69.7,83,63,44,29.94,29.82,9,1,10,0.00
2012-7-25,103.3,89.2,75.7,78.4,63.6,35.7,99,54,12,29.88,29.65,9,2,11,0.00
2012-7-26,90.5,82.3,73.8,75.5,70.0,65.0,90,67,50,29.79,29.62,14,3,15,0.00
2012-7-27,88.5,79.6,70.2,71.6,56.7,27.4,94,55,12,30.00,29.76,17,4,19,0.00
2012-7-28,86.0,76.1,66.7,69.8,64.6,59.2,98,70,41,30.12,29.94,9,1,11,0.00
2012-7-29,91.6,78.5,68.3,67.4,64.6,31.1,94,66,12,30.09,29.88,8,1,9,0.00
2012-7-30,92.5,81.0,70.2,73.2,69.5,65.3,98,70,45,29.94,29.82,8,1,10,0.00
2012-7-31,99.8,84.8,73.2,80.4,68.1,35.7,100,66,12,29.91,29.79,15,2,17,0.00
2012-8-1,95.5,80.0,68.5,69.1,58.1,28.0,92,58,12,29.97,29.79,7,1,8,0.00
2012-8-2,97.2,79.4,68.3,75.2,64.1,0.0,100,67,12,29.85,29.68,8,1,9,0.13
2012-8-3,93.2,78.6,69.4,78.8,72.3,69.4,100,84,48,29.85,29.76,11,1,12,0.04
2012-8-4,92.8,82.2,75.0,83.2,75.5,71.3,100,82,54,29.91,29.76,17,1,19,0.21
2012-8-5,89.4,78.3,69.8,75.4,65.0,53.8,100,69,31,30.15,29.88,14,3,15,0.04
2012-8-6,93.9,76.2,63.1,68.6,52.3,24.5,98,55,12,30.18,29.94,9,1,11,0.04
2012-8-7,99.7,80.8,64.8,68.9,55.3,30.9,88,51,12,30.00,29.85,8,1,9,0.00
2012-8-8,88.3,76.6,35.4,73.9,68.5,-15.8,100,78,10,29.97,29.85,11,1,12,0.08
2012-8-9,90.8,77.5,69.2,75.1,68.0,61.0,100,76,38,29.94,29.71,14,2,16,0.00
2012-8-10,81.5,70.3,63.0,65.9,58.8,48.8,100,71,37,30.00,29.82,14,4,16,0.00
2012-8-11,84.2,69.6,57.4,60.4,45.3,19.8,92,53,12,30.09,29.97,13,2,14,0.00
2012-8-12,78.1,68.6,58.5,64.2,57.1,50.5,94,68,52,30.06,29.91,2,0,2,0.09
2012-8-13,76.1,69.2,63.8,70.0,65.6,63.8,100,89,72,30.00,29.88,10,2,12,0.00
2012-8-14,82.6,71.8,59.9,71.3,62.5,57.8,100,76,43,30.06,29.88,8,1,9,0.29
2012-8-15,89.8,75.4,64.2,66.9,61.4,53.9,93,66,31,30.03,29.82,8,1,9,0.29
2012-8-16,80.9,73.3,64.4,73.9,67.2,60.6,100,82,62,30.00,29.76,8,2,9,0.00
2012-8-17,79.5,68.3,56.8,62.8,54.3,44.3,100,65,32,30.09,29.97,12,3,14,0.29
2012-8-18,80.2,68.3,55.2,62.0,51.6,0.0,95,61,12,30.06,29.88,6,1,7,0.00
2012-8-19,81.1,69.4,62.4,59.5,48.1,18.7,82,55,12,30.00,29.88,12,1,14,0.04
2012-8-20,81.7,69.5,57.5,62.7,47.8,21.0,97,57,12,30.06,29.88,12,2,14,0.26
2012-8-21,84.6,71.1,58.3,63.0,45.4,18.7,98,52,12,30.09,29.97,7,1,8,0.30
2012-8-22,90.7,74.7,58.6,61.5,42.0,18.7,84,42,12,30.12,29.94,8,1,9,0.00
2012-8-23,95.7,79.2,63.8,64.2,42.4,18.7,82,37,12,30.09,29.91,6,2,7,0.30
2012-8-24,95.0,79.9,66.7,73.5,43.8,19.7,100,40,12,30.03,29.88,7,1,8,0.30
2012-8-25,93.0,80.3,65.8,76.6,50.0,26.0,100,49,12,30.03,29.88,13,2,15,0.00
2012-8-26,84.6,76.4,72.3,79.7,73.1,65.1,100,90,68,30.03,29.88,8,1,9,0.30
2012-8-27,89.1,77.7,69.8,77.0,68.1,57.4,100,77,36,30.12,29.94,12,2,14,0.00
2012-8-28,91.2,77.5,64.2,72.5,63.5,58.6,99,66,38,30.12,29.94,14,2,15,0.00
2012-8-29,91.4,78.0,64.9,67.0,62.6,58.4,86,62,39,30.12,29.91,6,1,7,0.00
2012-8-30,95.2,80.3,67.3,68.0,62.4,55.8,89,59,28,30.09,29.88,7,1,8,0.00
2012-8-31,82.8,76.4,70.9,77.2,72.3,60.3,100,88,62,30.06,29.32,6,0,7,0.54
2012-9-1,81.5,75.7,73.9,81.5,75.7,73.9,100,100,99,29.97,29.76,16,1,18,1.53
2012-9-2,81.5,76.4,73.8,81.0,76.2,73.6,100,99,91,29.85,29.74,14,1,15,2.12
2012-9-3,89.6,78.5,72.1,79.7,74.2,70.3,100,89,54,29.88,29.79,8,1,9,0.46
2012-9-4,90.7,80.5,73.2,80.5,74.4,69.5,100,84,54,29.88,29.76,6,0,7,0.00
2012-9-5,83.1,73.3,66.0,75.8,70.6,66.0,100,92,66,29.97,29.76,14,1,16,0.20
2012-9-6,87.2,76.4,70.0,76.8,66.1,55.8,100,75,35,29.97,29.82,9,1,11,0.00
2012-9-7,80.4,69.9,63.8,76.5,68.2,-15.8,100,94,78,29.91,29.74,16,2,18,0.29
2012-9-8,73.6,64.2,56.3,63.1,53.4,47.5,100,72,40,30.03,29.88,12,5,16,0.00
2012-9-9,73.4,62.8,55.2,56.2,52.3,47.3,93,70,41,30.18,29.88,13,4,15,0.00
2012-9-10,77.0,64.8,52.9,62.6,53.2,50.3,100,69,42,30.27,30.09,6,1,6,0.00
2012-9-11,82.8,67.0,56.1,64.2,57.4,53.5,100,74,42,30.21,30.06,6,2,7,0.00
2012-9-12,84.4,70.8,59.3,62.9,59.2,56.3,100,71,39,30.21,30.06,9,2,10,0.00
2012-9-13,81.5,67.0,57.7,67.4,59.9,50.8,100,80,46,30.33,30.15,11,3,12,2.61
2012-9-14,70.9,61.4,54.0,60.7,54.3,48.8,100,80,46,30.41,30.30,11,1,12,0.21
2012-9-15,75.2,63.5,53.2,60.0,52.1,49.4,97,70,41,30.39,30.18,8,0,9,2.82
2012-9-16,77.2,65.4,53.2,62.1,56.7,51.3,96,75,51,30.21,30.00,6,0,7,0.00
2012-9-17,75.7,66.6,59.3,72.1,64.4,58.2,100,93,71,30.03,29.76,20,2,23,0.00
2012-9-18,64.9,55.5,48.9,58.5,45.9,32.7,100,75,31,30.12,29.88,20,4,23,0.00
2012-9-19,74.5,60.9,46.6,51.6,45.5,40.1,84,60,36,30.12,29.91,12,2,14,0.00
2012-9-20,73.9,64.2,55.6,57.0,43.2,18.6,90,53,13,30.00,29.94,16,3,18,0.00
2012-9-21,76.6,61.7,52.3,60.9,50.0,41.8,95,68,32,30.03,29.68,11,2,12,0.08
2012-9-22,62.6,53.8,48.0,54.1,43.2,30.0,100,72,35,30.27,29.88,20,4,23,2.90
2012-9-23,66.0,52.2,42.6,45.7,36.1,13.5,93,62,14,30.33,30.24,15,2,17,0.00
2012-9-24,72.1,57.7,42.2,46.8,39.0,-15.8,77,53,22,30.30,29.94,11,2,12,0.00
2012-9-25,75.4,65.6,58.6,72.1,62.2,46.5,100,90,57,30.00,29.82,8,1,9,0.46
2012-9-26,72.8,68.2,62.8,72.3,68.1,62.8,100,100,94,30.12,29.88,6,1,7,0.12
2012-9-27,72.8,63.5,57.7,61.8,51.4,45.0,100,67,41,30.24,30.09,10,1,12,3.48
2012-9-28,69.8,60.3,51.4,53.4,49.3,45.0,93,69,45,30.24,30.09,12,1,14,0.00
2012-9-29,75.6,61.8,49.5,58.7,49.5,42.5,100,69,32,30.21,29.97,11,1,12,0.00
2012-9-30,73.9,63.1,50.9,53.8,47.4,42.9,85,59,33,30.00,29.88,9,1,10,0.00
2012-10-1,66.4,58.7,51.1,51.6,46.6,43.8,86,66,45,29.94,29.76,12,0,14,0.00
2012-10-2,72.7,60.4,50.3,56.3,50.2,44.8,91,71,42,29.91,29.76,14,2,16,0.00
2012-10-3,71.2,62.9,35.4,63.5,55.6,-15.8,100,79,10,30.09,29.91,6,0,7,0.00
2012-10-4,78.8,62.8,50.2,63.9,55.0,46.3,100,78,46,30.21,30.06,17,4,19,0.17
2012-10-5,50.9,46.3,40.5,50.7,43.4,35.2,100,90,66,30.27,30.15,12,4,13,1.54
2012-10-6,49.6,42.6,36.5,37.6,34.0,29.6,96,73,49,30.27,30.18,15,5,17,0.96
2012-10-7,52.2,44.7,38.1,37.4,31.7,26.4,86,62,38,30.27,30.12,11,3,14,0.96
2012-10-8,60.4,46.9,34.9,39.5,35.0,30.4,89,66,39,30.24,30.00,9,2,10,0.96
2012-10-9,66.2,54.2,44.2,46.8,43.3,37.0,95,69,45,30.24,29.82,26,3,29,1.00
2012-10-10,56.7,46.2,37.6,45.2,36.9,30.1,100,74,38,30.24,30.00,17,4,19,0.04
2012-10-11,66.7,52.4,39.7,45.2,39.4,33.3,82,63,40,30.24,30.09,11,2,12,0.00
2012-10-12,61.9,52.7,43.7,45.2,39.4,33.9,78,61,44,30.41,30.21,14,2,15,1.00
2012-10-13,70.0,61.2,51.2,69.8,59.6,43.6,100,95,76,30.27,29.79,11,2,12,1.70
2012-10-14,70.7,62.9,53.6,69.8,61.4,0.0,100,95,76,29.97,29.59,31,7,35,3.24
2012-10-15,65.7,54.9,46.2,53.2,47.7,42.5,100,80,47,30.03,29.94,11,3,12,0.00
2012-10-16,75.6,61.4,47.8,57.0,52.2,46.7,98,74,50,29.97,29.59,12,3,14,0.00
2012-10-17,66.4,60.7,54.1,63.1,56.7,51.3,100,88,61,29.65,29.35,25,4,28,0.58
2012-10-18,57.2,51.4,46.9,52.5,41.4,34.8,100,71,45,29.62,29.50,19,5,21,0.08
2012-10-19,53.8,49.7,45.8,51.4,47.6,44.1,100,93,71,29.76,29.50,19,6,21,0.17
2012-10-20,58.5,51.4,48.0,50.5,47.6,42.1,100,88,59,30.12,29.76,12,4,14,3.07
2012-10-21,73.4,58.8,46.4,60.6,52.8,46.4,100,83,54,30.00,29.88,8,3,9,4.07
2012-10-22,72.7,66.2,60.8,71.4,65.7,60.1,100,98,88,30.00,29.88,12,2,14,0.66
2012-10-23,74.7,67.5,63.8,71.0,66.4,63.8,100,97,77,29.97,29.79,6,2,6,0.00
2012-10-24,82.2,69.9,63.1,67.6,65.5,63.1,100,87,58,29.97,29.82,3,0,3,0.00
2012-10-25,79.0,63.6,45.0,66.2,58.3,40.1,100,85,54,30.18,29.74,25,5,28,0.25
2012-10-26,50.9,44.2,37.6,40.1,31.9,29.8,83,63,47,30.36,30.18,15,15,17,0.04
2012-10-27,49.8,41.2,33.2,33.0,30.1,28.5,88,66,47,30.36,30.24,15,8,17,0.00
2012-10-28,53.2,40.4,34.3,37.1,30.7,28.3,80,69,47,30.36,30.18,14,3,15,0.00
2012-10-29,54.3,43.7,34.2,38.4,29.7,0.0,100,61,31,30.33,30.12,17,5,19,0.00
2012-10-30,56.1,44.9,36.7,28.0,22.1,8.5,68,44,17,30.12,29.79,32,11,37,0.09
2012-10-31,52.9,40.2,31.8,30.6,25.5,17.1,80,57,24,29.97,29.85,20,8,23,0.00
2012-11-1,129.0,47.7,35.2,99.9,31.6,21.8,100,55,36,30.00,29.82,16,4,18,0.00
2012-11-2,54.5,44.2,34.2,35.3,30.7,27.6,84,60,40,30.12,29.94,14,2,16,0.00
2012-11-3,48.0,41.4,33.6,39.8,36.4,27.4,97,83,59,30.24,30.06,16,3,18,0.00
2012-11-4,50.7,38.8,30.2,42.1,34.0,30.2,100,85,57,30.27,30.15,9,1,11,0.04
2012-11-5,45.1,41.8,38.8,39.2,37.0,35.0,97,83,72,30.21,30.06,11,1,12,0.00
2012-11-6,46.9,43.1,39.9,45.0,40.7,-15.8,100,92,80,30.12,29.85,8,2,9,0.12
2012-11-7,48.2,44.5,42.4,44.2,42.3,39.2,100,92,73,30.24,29.91,20,6,22,0.00
2012-11-8,55.4,44.0,35.6,46.6,39.9,35.6,100,87,57,30.24,30.06,11,1,12,0.05
2012-11-9,68.9,54.6,41.2,56.8,48.2,40.5,100,81,52,30.12,29.88,8,2,9,0.30
2012-11-10,76.1,65.4,57.5,57.2,51.6,47.4,92,63,42,30.00,29.85,15,4,17,0.00
2012-11-11,69.8,58.2,36.5,58.8,51.0,36.2,100,79,57,30.12,29.76,32,7,36,0.62
2012-11-12,82.9,35.1,28.4,36.3,24.4,19.7,100,66,43,30.41,30.03,28,10,32,0.62
2012-11-13,47.3,35.5,25.9,28.9,24.6,21.8,90,67,40,30.53,30.18,11,2,12,0.00
2012-11-14,51.1,38.6,32.0,32.5,28.6,25.9,88,69,41,30.50,30.36,12,2,13,0.04
2012-11-15,53.2,38.6,28.6,36.8,28.5,24.3,94,69,37,30.41,30.30,7,1,8,0.66
2012-11-16,59.9,43.7,32.3,39.0,32.7,28.2,89,67,41,30.47,30.36,11,2,12,0.00
2012-11-17,58.3,42.7,32.0,39.4,32.5,0.0,88,69,37,30.50,30.41,9,2,11,0.00
2012-11-18,61.0,45.0,32.7,41.0,35.0,30.2,98,71,39,30.44,30.30,10,3,12,0.00
2012-11-19,57.0,49.1,40.8,44.0,40.4,35.0,88,72,56,30.33,30.12,7,2,8,0.00
2012-11-20,63.1,52.2,43.7,50.8,45.5,40.4,100,79,59,30.21,30.06,9,2,11,0.00
2012-11-21,58.6,48.0,42.4,55.9,47.6,42.4,100,99,83,30.27,30.09,9,2,10,0.00
2012-11-22,67.6,56.4,45.7,56.7,47.7,37.7,100,76,46,30.15,29.88,31,5,35,0.00
2012-11-23,47.7,37.1,26.2,39.6,25.2,17.1,83,62,44,30.36,30.09,37,16,41,0.00
2012-11-24,35.8,28.9,21.0,23.2,19.9,16.7,88,70,53,30.33,30.00,14,4,16,0.00
2012-11-25,49.1,41.0,31.8,30.3,27.2,22.5,70,58,47,30.12,29.85,11,4,12,0.00
2012-11-26,44.8,34.5,27.1,29.8,22.3,3.2,82,63,19,30.41,30.09,19,5,22,0.00
2012-11-27,38.8,28.3,18.7,19.9,16.8,13.0,83,63,40,30.41,30.27,10,3,12,0.00
2012-11-28,49.8,34.7,24.8,29.8,23.4,16.7,81,64,43,30.39,30.30,7,2,8,0.00
2012-11-29,56.7,42.9,29.3,38.6,32.6,26.0,94,68,49,30.30,30.00,10,3,12,0.00
2012-11-30,63.1,48.2,40.3,41.5,36.4,32.3,87,65,44,30.12,30.00,15,3,17,0.00
2012-12-1,67.1,54.2,39.2,56.5,49.1,37.2,100,84,63,30.12,29.91,9,4,10,0.00
2012-12-2,67.6,59.5,52.2,62.0,56.4,52.0,100,90,74,30.03,29.91,10,3,12,0.00
2012-12-3,73.6,64.3,54.7,68.7,61.2,54.5,100,90,65,30.03,29.79,9,3,11,0.08
2012-12-4,58.5,50.6,42.6,56.7,43.5,34.2,100,78,50,30.33,29.97,12,3,14,0.62
2012-12-5,48.2,40.4,33.4,37.3,33.9,29.9,94,78,62,30.41,30.21,12,3,14,0.00
2012-12-6,53.8,43.8,35.0,46.4,40.7,34.4,100,90,66,30.21,29.94,9,2,10,0.00
2012-12-7,48.9,46.9,44.8,48.9,46.9,44.8,100,100,100,30.00,29.79,9,2,11,0.13
2012-12-8,47.3,43.0,41.0,47.1,43.0,41.0,100,100,100,30.03,29.88,14,4,16,0.75
2012-12-9,48.4,43.7,40.5,48.4,43.4,39.0,100,99,88,30.06,29.76,28,7,31,0.08
2012-12-10,42.2,42.2,42.2,39.0,39.0,39.0,88,88,88,30.03,29.88,25,13,28,0.00
2012-12-11,42.2,42.2,42.2,39.0,39.0,39.0,88,88,88,30.09,30.03,5,0,5,0.00
2012-12-13,47.5,41.4,36.3,33.6,30.7,29.0,77,66,57,30.18,30.09,3,2,3,0.00
2012-12-14,56.7,44.3,34.5,41.4,33.6,28.1,86,67,43,30.21,30.00,3,3,3,0.04
2012-12-15,54.0,49.9,45.0,54.0,49.3,40.3,100,98,82,30.03,29.62,3,2,3,0.04
2012-12-16,52.0,45.3,40.8,51.2,43.2,38.1,100,92,82,29.82,29.71,2,2,2,0.00
2012-12-17,41.2,38.7,35.6,39.5,37.7,35.6,100,97,87,30.24,29.65,5,1,6,0.12
2012-12-18,52.2,40.6,33.4,46.1,37.3,32.3,100,89,62,29.94,29.59,25,6,28,0.38
2012-12-19,45.3,39.6,35.4,45.3,38.3,33.7,100,95,86,30.03,29.56,21,10,24,0.62
2012-12-20,53.6,37.4,25.1,53.6,36.9,21.0,100,98,83,30.15,29.14,52,24,59,1.41
2012-12-21,29.5,23.8,19.6,21.7,15.8,12.8,87,72,56,30.30,29.85,45,21,50,0.91
2012-12-22,37.8,28.6,16.3,29.0,21.2,11.9,92,74,58,30.30,29.94,19,7,22,0.00
2012-12-23,36.8,31.7,27.3,32.3,28.9,24.6,100,90,78,29.97,29.88,11,1,12,0.00
2012-12-24,33.8,28.6,23.4,33.8,27.2,0.0,100,95,79,30.15,29.82,25,9,28,0.00
2012-12-25,31.1,28.4,24.4,28.5,24.3,19.1,99,85,70,30.27,30.12,17,6,19,0.00
2012-12-26,34.0,30.6,28.6,26.9,25.8,23.9,90,82,73,30.18,29.94,25,10,28,0.00
2012-12-27,34.7,30.8,27.1,24.8,23.2,21.0,90,74,59,30.21,30.06,12,2,14,0.00
2012-12-28,36.8,33.9,30.7,32.9,29.7,24.0,99,84,74,30.12,29.82,12,2,13,0.91
2012-12-29,32.9,26.7,19.8,32.9,22.4,15.6,100,84,69,30.33,29.88,29,10,33,0.00
2012-12-30,41.7,30.4,19.4,29.2,23.7,16.2,93,77,58,30.39,30.18,11,1,12,0.95
2012-12-31,38.1,33.2,23.0,36.0,28.6,0.0,100,84,59,30.21,30.12,14,4,16,0.00
2013-1-1,23.2,19.5,12.2,18.8,11.9,4.3,83,72,57,30.30,30.18,12,4,14,0.00